Orbital Elements at Epoch 2459000.5 (2020-May-31.0) TDB
Reference: JPL 17 (heliocentric ecliptic J2000)
Element | Value | Uncertainty (1-sigma) | Units |
e | .2689946995608082 | 4.7693e-08 | |
a | 2.621738154519889 | 1.5122e-08 | au |
q | 1.916504487317704 | 1.3222e-07 | au |
i | 6.087845235750694 | 4.1878e-06 | deg |
node | 144.6617098865802 | 3.3283e-05 | deg |
peri | 228.4463005825249 | 3.3998e-05 | deg |
M | 303.6852898940869 | 7.7829e-06 | deg |
tp | 2459243.050263411406 (2021-Jan-28.55026341) | 3.4655e-05 | TDB |
period | 1550.537944062645 4.25 | 1.3415e-05 3.673e-08 | d yr |
n | .2321774848390652 | 2.0088e-09 | deg/d |
Q | 3.326971821722074 | 1.919e-08 | au |
|
| | Orbit Determination Parameters
Additional Information
|